Regional Weather Roundup
Issued by NWS

Home | Current Version | Previous Version | Graphics & Text | Print | Product List | Glossary Off
Versions: 1 2 3 4 5 6 7 8 9 10 11 12 13 14 15 16 17 18 19 20 21 22 23 24 25 26 27 28 29 30 31 32 33 34 35 36 37 38 39 40 41 42 43 44 45 46 47 48 49 50

000
ASUS43 KFSD 121602
RWRSD

WEATHER ROUNDUP FOR SOUTH DAKOTA
NATIONAL WEATHER SERVICE SIOUX FALLS SD
1000 AM CST FRI FEB 12 2016

NOTE: "FAIR" INDICATES FEW OR NO CLOUDS BELOW 12,000 FEET WITH NO
SIGNIFICANT WEATHER AND/OR OBSTRUCTIONS TO VISIBILITY.


SDZ001>005-009-010-012>017-121700-
NORTHWEST AND NORTH CENTRAL SOUTH DAKOTA

CITY           SKY/WX    TMP DP  RH WIND       PRES   REMARKS
BUFFALO          N/A     21  19  92 NE12      30.34S WCI   9
FAITH            N/A     20  12  71 NE10      30.46R WCI   9
MOBRIDGE       CLOUDY    16   8  71 N15       30.50R WCI   1
$$

SDZ012>016-024>037-041>051-057-063-072>074-121700-
SOUTHWEST AND SOUTH CENTRAL SOUTH DAKOTA

CITY           SKY/WX    TMP DP  RH WIND       PRES   REMARKS
RAPID CTY ARPT CLOUDY    28  26  92 NE7       30.39R WCI  21
PIERRE         CLOUDY    21  14  74 NE9       30.51R WCI  11
CUSTER         CLOUDY    26  22  84 SE8G23    30.28R WCI  18
ELLSWORTH AFB  LGT SNOW  28  28  99 NE5       30.38  FOG     WCI  23
PHILIP         CLOUDY    24  18  77 NE9       30.48R WCI  14
PINE RIDGE     CLOUDY    30  28  92 E3        30.40R FOG
WINNER         CLOUDY    23  13  65 N14       30.48R WCI  11
$$

SDZ004>011-016>023-039-040-121700-
NORTHEAST SOUTH DAKOTA

CITY           SKY/WX    TMP DP  RH WIND       PRES   REMARKS
ABERDEEN       CLOUDY     7  -3  64 N13       30.59R WCI  -9
WATERTOWN      CLOUDY     4  -6  63 N20       30.48R WCI -17
BROOKINGS      SUNNY      8  -1  66 N17       30.48R WCI -10
SISSETON         N/A      1  -7  68 N20       30.56R WCI -20
$$

SDZ017-020-022-023-036>040-048>070-121700-
SOUTHEAST SOUTH DAKOTA

CITY           SKY/WX    TMP DP  RH WIND       PRES   REMARKS
SIOUX FALLS    PTSUNNY   12   4  70 N15       30.49R WCI  -4
HURON          CLOUDY    13   4  67 N15       30.56R WCI  -3
MITCHELL       CLOUDY    15   8  73 N16       30.54R WCI  -1
YANKTON        CLOUDY    18  10  73 N20       30.51R WCI   1
$$

ABBREVIATIONS USED IN REMARKS
   TC - TEMPERATURE IN CELSIUS
  WCI - WIND CHILL INDEX
   HX - HEAT INDEX
  VSB - VISIBILITY




USA.gov is the U.S. government's official web portal to all federal, state and local government web resources and services.